DW2470 Weather Reports


time (UTC)temp
C
wind
direction
speed
KPH
gust
KPH
rain 1hr
cm
rain 24hr
cm
rain mn
cm
humidity
%
barometer
mb
20240222100101 -2 266 14.5 0.0 0.00 0.00 0.00 94 1014.8
20240222094556 -2 266 11.3 0.0 0.00 0.00 0.00 94 1014.7
20240222093054 -3 264 9.7 0.0 0.00 0.00 0.00 94 1014.8
20240222091557 -3 262 9.7 0.0 0.00 0.00 0.00 94 1014.6
20240222090058 -3 304 8.0 0.0 0.00 0.00 0.00 93 1014.6
20240222084547 -3 14 4.8 0.0 0.00 0.00 0.00 93 1014.7
20240222083057 -3 14 4.8 0.0 0.00 0.00 0.00 93 1014.6
20240222081546 -3 336 9.7 0.0 0.00 0.00 0.00 92 1014.7
20240222080043 -2 329 6.4 0.0 0.00 0.00 0.00 91 1014.6
20240222074541 -2 314 3.2 0.0 0.00 0.00 0.00 91 1014.5
20240222073035 -2 312 4.8 0.0 0.00 0.00 0.00 91 1014.3
20240222071531 -1 314 8.0 0.0 0.00 0.00 0.00 91 1014.3
20240222070031 -1 334 9.7 0.0 0.00 0.00 0.00 91 1014.1
20240222064531 -1 333 12.9 0.0 0.00 0.00 0.00 91 1014.2
20240222063035 -1 327 8.0 0.0 0.00 0.00 0.00 90 1014.0
20240222061523 -1 316 9.7 0.0 0.00 0.00 0.00 90 1013.7
20240222060022 -1 328 12.9 0.0 0.00 0.00 0.00 90 1013.7
20240222054513 -1 323 8.0 0.0 0.00 0.00 0.00 89 1013.5
20240222053012 0 298 6.4 0.0 0.00 0.00 0.00 89 1013.1
20240222051508 0 297 8.0 0.0 0.00 0.00 0.00 88 1013.2
20240222050006 0 293 11.3 0.0 0.00 0.00 0.00 88 1013.1
20240222044503 0 306 8.0 0.0 0.00 0.00 0.00 88 1013.0
20240222043001 0 315 4.8 0.0 0.00 0.00 0.00 86 1012.7
20240222041558 0 306 6.4 0.0 0.00 0.00 0.00 86 1012.4
20240222040056 1 295 9.7 0.0 0.00 0.00 0.00 86 1012.3
20240222034555 1 329 4.8 0.0 0.00 0.00 0.00 85 1012.2
20240222033051 1 332 4.8 0.0 0.00 0.00 0.00 85 1012.0
20240222031549 1 331 8.0 0.0 0.00 0.00 0.00 83 1011.9
20240222030057 1 329 9.7 0.0 0.00 0.00 0.00 84 1011.7
20240222024547 2 318 9.7 0.0 0.00 0.00 0.00 82 1011.5
20240222023052 2 297 12.9 0.0 0.00 0.00 0.00 81 1011.2
20240222021542 2 287 9.7 0.0 0.00 0.00 0.00 80 1011.0
20240222020042 2 268 8.0 0.0 0.00 0.00 0.00 80 1010.8
20240222014541 3 271 11.3 0.0 0.00 0.00 0.00 77 1010.6
20240222013048 3 275 9.7 0.0 0.00 0.00 0.00 78 1010.3
20240222011540 4 277 8.0 0.0 0.00 0.00 0.00 76 1010.3
20240222010038 5 281 12.9 0.0 0.00 0.00 0.00 74 1010.0
20240222004541 5 266 12.9 0.0 0.00 0.00 0.00 73 1009.8
20240222003036 6 268 14.5 0.0 0.00 0.00 0.00 71 1009.6
20240222001536 6 263 11.3 0.0 0.00 0.00 0.00 70 1009.4
20240222000034 7 279 11.3 0.0 0.00 0.00 0.00 68 1009.3
20240221234543 7 275 12.9 0.0 0.00 0.00 0.00 67 1009.2
20240221233032 8 276 16.1 0.0 0.00 0.00 0.00 65 1009.1
20240221231535 8 275 19.3 0.0 0.00 0.00 0.00 64 1009.1
20240221230031 8 273 19.3 0.0 0.00 0.00 0.00 62 1009.1
20240221224529 9 273 22.5 0.0 0.00 0.00 0.00 60 1009.0
20240221223027 8 273 24.1 0.0 0.00 0.00 0.00 61 1008.9
20240221221534 8 266 25.7 0.0 0.00 0.00 0.00 62 1008.8
20240221220039 9 265 20.9 0.0 0.00 0.00 0.00 60 1008.8
20240221214531 9 272 33.8 0.0 0.00 0.00 0.00 59 1008.6
20240221213024 10 274 25.7 0.0 0.00 0.00 0.00 59 1008.6
20240221211519 9 273 27.4 0.0 0.00 0.00 0.00 61 1008.6
20240221210021 8 289 20.9 0.0 0.00 0.00 0.00 64 1008.5
20240221204514 7 278 19.3 0.0 0.00 0.00 0.00 67 1008.6
20240221203046 7 275 22.5 0.0 0.00 0.00 0.00 68 1008.5
20240221201544 7 285 22.5 0.0 0.00 0.00 0.00 69 1008.6
20240221200012 7 281 22.5 0.0 0.00 0.00 0.00 66 1008.7
20240221194514 7 272 24.1 0.0 0.00 0.00 0.00 67 1008.7
20240221193009 8 290 25.7 0.0 0.00 0.00 0.00 65 1008.8
20240221191511 7 264 19.3 0.0 0.00 0.00 0.00 67 1008.8
20240221190003 7 278 22.5 0.0 0.00 0.00 0.00 67 1008.9
20240221184503 7 260 25.7 0.0 0.00 0.00 0.00 68 1009.1
20240221183104 7 267 24.1 0.0 0.00 0.00 0.00 66 1009.4
20240221181620 7 258 25.7 0.0 0.00 0.00 0.00 67 1009.4
20240221180105 7 282 22.5 0.0 0.00 0.00 0.00 69 1009.4
20240221174603 6 266 22.5 0.0 0.00 0.00 0.00 70 1009.4
20240221173046 6 275 24.1 0.0 0.00 0.00 0.00 70 1009.4
20240221171545 6 268 24.1 0.0 0.00 0.00 0.00 71 1009.5
20240221170043 5 254 27.4 0.0 0.00 0.00 0.00 71 1009.6
20240221164553 5 258 24.1 0.0 0.00 0.00 0.00 72 1009.6
20240221163034 5 252 24.1 0.0 0.00 0.00 0.00 74 1009.6
20240221161533 4 14 22.5 0.0 0.00 0.00 0.00 76 1009.4
20240221160029 3 252 19.3 0.0 0.00 0.00 0.00 78 1009.5
20240221154526 3 241 17.7 0.0 0.00 0.00 0.00 79 1009.3
20240221153030 3 232 17.7 0.0 0.00 0.00 0.00 80 1009.3
20240221151528 2 221 17.7 0.0 0.00 0.00 0.00 80 1009.1
20240221150020 2 223 16.1 0.0 0.00 0.00 0.00 80 1009.2
20240221144520 2 225 17.7 0.0 0.00 0.00 0.00 82 1009.2
20240221143019 1 229 17.7 0.0 0.00 0.00 0.00 82 1009.3
20240221141524 1 237 17.7 0.0 0.00 0.00 0.00 83 1009.4
20240221140017 1 235 17.7 0.0 0.00 0.00 0.00 84 1009.3
20240221134517 1 214 17.7 0.0 0.00 0.00 0.00 81 1009.3
20240221133013 1 224 19.3 0.0 0.00 0.00 0.00 82 1009.2
20240221131522 2 225 22.5 0.0 0.00 0.00 0.00 79 1009.3
20240221130011 2 229 20.9 0.0 0.00 0.00 0.00 82 1009.1
20240221124510 1 225 20.9 0.0 0.00 0.00 0.00 83 1009.0
20240221123010 2 224 19.3 0.0 0.00 0.00 0.00 83 1009.1
20240221121508 1 227 20.9 0.0 0.00 0.00 0.00 83 1009.1
20240221120004 2 219 20.9 0.0 0.00 0.00 0.00 83 1009.2
20240221114503 2 219 20.9 0.0 0.00 0.00 0.00 82 1009.2
20240221113002 2 215 19.3 0.0 0.00 0.00 0.00 83 1009.5
20240221111603 2 210 19.3 0.0 0.00 0.00 0.00 84 1009.5
20240221110057 2 213 16.1 0.0 0.00 0.00 0.00 84 1009.7
20240221104609 2 223 17.7 0.0 0.00 0.00 0.00 85 1009.8
20240221103106 2 216 19.3 0.0 0.00 0.00 0.00 84 1009.8
20240221101553 2 216 14.5 0.0 0.00 0.00 0.00 83 1009.9